ログ速トップ
サイトで絞り込む
LAY」で検索 25740件中 1 - 50 表示
板名 タイトル レス数 更新日付 勢い
家庭用ゲーム sc 【XboxONE】PlayerUnknown’s Battlegrounds ドン勝9回目【PUBG】 222 2018-02-19 08:40 7
家庭用ゲーム sc 【PS3/PS4】PlayStation Plus Part 268【VITA】 676 2018-02-19 08:20 79
ゲームサロン sc 【PS3】PlayStation3 総合スレ Part3261 64 2018-02-19 08:17 23
AV機器 sc 【HMD】PlayStationVR 308【PSVR】 381 2018-02-19 08:14 112
邦楽グループ sc GLAY統一スレ804 860 2018-02-19 08:11 25
音ゲー sc MUSECA LAYER13【ミュゼカ】 978 2018-02-19 08:08 4
おもちゃ sc 【プレイアーツ改】 総合スレ11 【PLAY ARTS改】 88 2018-02-19 07:52 2
ハード・業界 sc 【PS4】PlayStation4 総合スレ ★822【Pro】 843 2018-02-19 07:51 216
ハード・業界 sc 【PSVita】PlayStationVita 総合 Part 1308 886 2018-02-19 07:51 43
スマホゲーム sc 【PUBG】Player Unknown Battle Ground Part1【絶地救生 全軍出撃】 314 2018-02-19 07:47 32
PCゲーム sc slay the spire part1 167 2018-02-19 07:43 14
PCアクション sc PLAYERUNKNOWN'S BATTLEGROUNDS Part151【PUBG】 678 2018-02-19 07:37 258
PCアクション sc [PUBG] PLAYERUNKNOWN'S BATTLEGROUNDS初心者スレ12 886 2018-02-19 07:03 85
音ゲー sc osu! - 63plays 907 2018-02-19 06:59 10
東アジアnews+ sc 【K-POP】セクシー過ぎるガールズグループ・LAYSHA(レイシャ)がついに日本初イベントへ 398 2018-02-19 06:36 183
Android sc 【WinでAndroid】Nox App Player Part13 178 2018-02-19 05:56 12
PCゲーム sc 【Limbo】INSIDE【Playdead】 742 2018-02-19 03:07 1
ソフトウェア sc SMPlayer 8 86 2018-02-19 02:41 1
家庭用ゲーム sc 【PS4/Vita】PlayStation Now Part4【PS Now】 961 2018-02-19 02:35 2
アジアエンタメ sc 【LAY】チャンイーシン応援スレ【EXO】 982 2018-02-19 02:24 3
なんでも実況J open なんやっけ?GLAYの名曲。確か・・・ 12 2018-02-19 02:11 3170
なんでも実況J sc 90年代売れてたバンド四天王→GLAY、ミスチル、スピッツ、ラルク 3 2018-02-19 02:09 7623
新・mac sc iMac Retina 5K Display Part 44 606 2018-02-19 02:06 19
ハード・業界 sc SIEが「PlayStation」以外の名前でハード出すってあり得るのかな 13 2018-02-19 01:56 107
Android sc 【Android TV】Nexus Player Part7 937 2018-02-19 01:03 2
自転車 sc 【SPEEDPLAY】スピードプレイ愛好会 8【アメちゃん】 676 2018-02-19 00:58 1
PCアクション sc PLAYERUNKNOWN'S BATTLEGROUNDS Part149【PUBG】 158 2018-02-18 23:58 11
HR・HM sc SLAYER スレイヤー vol.40 709 2018-02-18 23:57 5
携帯ゲーソフト sc 【PSP・Vita】PlayStation Store総合55【PSストア】 101 2018-02-18 23:54 8
ネットwatch sc 【PUBG】 PLAYERUNKNOWN'S BATTLEGROUNDS 晒しスレ 96 2018-02-18 23:30 0
家庭用ゲーム sc 【PSN】PlayStation Network 海外総合スレPart.19 77 2018-02-18 23:11 4
ソフトウェア sc 【VideoLAN】VLC media player 27 766 2018-02-18 22:57 2
Android sc 【WinでAndroid】BlueStacks App Player Part12 24 2018-02-18 22:50 28
伝説の sc GLAYはBOOWYを超えました 125 2018-02-18 22:41 0
ソフトウェア sc PotPlayer Part6 445 2018-02-18 22:37 1
映画作品・人 sc レディ・プレイヤー1 Ready Player One 171 2018-02-18 21:45 1
PCアクション sc [FPSサバイバルMMO] Play Rust Part34 667 2018-02-18 21:34 1
ヴィジュバンド sc 【元DELAY】LAID BACK OCEAN vol.④【元Jelly→】 244 2018-02-18 21:05 2
ハード・業界 sc 【PS3】俺らね、PLAYS(TAT)ION3はコケると思うよ。5385 625 2018-02-18 19:43 45
Android sc 【WinでAndroid】 MEmu App Player Part2 499 2018-02-18 18:24 1
iPhone sc 【Two Dots】Playdots 総合 ★ Part.6【Dots & Co】 702 2018-02-18 18:08 2
スマホゲーム sc 【フィッシュダム】Playrix総合【スケイプ】 360 2018-02-18 17:29 2
音楽配信 sc 【定額】Google Play Music 13 2018-02-18 17:27 0
Android sc 【WinでAndroid】BlueStacks App Player Part11 1002 2018-02-18 16:42 8
Google sc Google Play Music 21 144 2018-02-18 15:18 5
懐アニ平成 sc 【総合】スレイヤーズ【SLAYERS】竜破斬34発目 717 2018-02-18 14:18 3
スマートフォン sc Motorola Moto Z / Z Play part9 790 2018-02-18 13:20 7
なんでも実況J sc GLAYで一番の名曲が「逢いたい気持ち」という事実 1 2018-02-18 12:33 0
なんでも実況J sc coldplayに自身ニキ 10 2018-02-18 11:32 4408
なんでも実況J sc 欧米人がGLAY聴くと爆笑するらしいなw 2 2018-02-18 11:00 2504

スポンサードリンク